Location: Anuling
(14.1239°N, 120.8922°E)
Time: 01:06:47
(UTC+00:00)

GPS 2-17 Rocket1 - Pass Details

Date: 15 April 2026
Orbit: 544 x 613 km, 20.3° (Epoch: 19 May)

Event Time Altitude Azimuth Distance (km) Brightness Sun altitude
Rises 10:49:59 0° 288° (WNW) 2,853 8.7 -10.3°
Reaches altitude 10° 10:52:24 10° 295° (WNW) 1,953 7.1 -10.9°
Maximum altitude 10:56:49 46° 8° (N) 816 3.7 -11.9°
Enters shadow 11:00:14 16° 78° (ENE) 1,597 4.6 -12.7°
